Zurück zum Katalog

KUIPER-00210

AktivKommunikationLEO
NORAD 67146·PAYLOAD·🇺🇸 United States

Gestartet Dec 15, 2025 von Cape Canaveral Space Force Station

Loading…

Nächste Überflüge (nächste 24 Stunden)

TLE

AktuellSource: CelesTrak SupGP

Epoche: Sep 14, 2026, 22:10 UTC

1 67146C 25301P   26257.92407407  .00000857  00000+0  11219-3 0  2573
2 67146  51.8994 316.3055 0000428  81.8489 209.0710 14.79922016    18

Verfolge KUIPER-00210 in Echtzeit mit AllMySat

Download on the App Store